CAPE
504 543 449 266 258 269 281 323 442 528 576 556 583 561 539 392 222 337 557 486 343 197 80 27 17 33 86 135 154 100 72 0
648 606 641 469 281 256 265 257 273 383 411 416 488 488 401 188 33 216 415 434 325 141 43 6 0 0 21 34 37 38 13 0
893 719 776 752 523 297 178 260 247 200 291 320 392 373 332 202 0 50 298 310 242 162 77 17 0 0 0 13 10 12 14 1
566 955 803 631 791 475 491 299 152 74 18 81 128 203 179 216 91 0 195 216 162 96 51 0 0 0 0 0 0 0 0 9
713 559 722 880 882 684 743 802 581 315 125 14 2 71 220 259 137 0 0 134 49 15 0 0 0 0 60 0 0 0 0 2
386 544 539 534 639 826 908 686 724 694 510 457 39 18 31 36 194 34 0 1 0 0 34 135 64 47 161 186 88 21 0 0
22 0 0 297 750 517 483 629 748 628 656 621 477 307 130 146 173 90 5 0 11 32 2 0 143 273 475 380 330 180 73 32
0 0 0 0 0 0 11 372 402 663 511 659 656 494 438 472 369 321 247 4 0 66 99 172 122 280 447 541 450 359 182 78
0 0 0 0 0 0 0 0 6 115 503 557 489 551 460 474 435 326 295 39 8 1 111 144 182 180 219 500 517 379 303 241
0 0 0 0 0 0 0 0 0 0 0 212 501 402 435 371 333 345 359 364 286 147 40 141 203 252 336 360 472 605 407 427
0 0 0 0 0 0 0 0 0 0 0 0 5 230 370 340 233 268 233 275 191 116 88 71 182 171 183 238 256 249 527 442
0 0 0 0 0 0 0 0 0 0 0 0 0 0 0 0 88 205 227 186 92 86 126 133 106 151 151 163 199 210 182 440
0 0 0 0 0 0 0 0 0 0 0 0 0 0 0 0 0 0 13 99 138 81 31 84 97 117 168 139 138 163 156 123
0 0 0 0 0 0 0 0 0 0 0 0 0 0 0 0 0 0 0 12 41 7 6 48 73 99 80 115 115 82 77 117
0 0 0 0 0 0 0 0 0 0 0 0 0 0 0 0 0 0 0 0 28 89 20 22 21 108 83 55 80 77 110 114
0 0 0 0 0 0 0 0 0 0 0 0 0 0 0 0 0 0 0 0 1 14 60 41 21 20 52 86 81 77 100 87
0 0 0 0 0 0 0 0 0 0 0 0 0 0 0 0 0 0 0 0 0 3 5 49 82 48 40 30 52 48 72 93
0 0 0 0 0 0 0 0 0 0 0 0 0 0 0 0 0 0 0 0 3 0 1 1 35 105 75 63 98 35 61 95
0 0 0 0 0 0 0 0 0 0 0 0 0 0 0 0 0 0 0 0 3 0 0 0 3 56 111 107 76 65 53 80
0 0 0 0 0 0 0 0 0 0 0 0 0 0 0 0 0 0 0 0 3 0 0 0 0 1 102 70 103 78 77 72
CIN
-47 -38 -63 -167 -165 -137 -111 -90 -67 -48 -43 -39 -44 -44 -50 -95 -136 -95 -46 -45 -77 -116 -173 -188 -259 -127 -59 -67 -68 -65 -83 -0
-32 -31 -24 -41 -78 -155 -136 -121 -102 -77 -66 -64 -55 -65 -85 -157 -224 -148 -94 -94 -106 -140 -197 -218 -0 -0 -124 -89 -142 -143 -174 -0
-6 -17 -19 -11 -28 -73 -154 -119 -124 -121 -82 -74 -53 -72 -95 -145 -0 -188 -145 -133 -141 -159 -194 -206 -0 -0 -0 -90 -102 -128 -165 -124
-29 -5 -8 -10 -10 -35 -38 -65 -81 -142 -271 -169 -115 -84 -96 -120 -154 -0 -172 -184 -189 -193 -212 -0 -0 -0 -0 -0 -0 -0 -0 -133
-14 -33 -5 -0 -1 -6 -2 -0 -14 -62 -80 -158 -71 -75 -49 -57 -77 -0 -0 -186 -221 -115 -0 -0 -0 -0 -43 -0 -0 -0 -0 -11
-27 -10 -13 -7 -3 -0 -0 -0 -0 -1 -19 -16 -123 -89 -40 -93 -66 -108 -0 -15 -0 -0 -40 -36 -39 -41 -34 -10 -19 -16 -0 -0
-82 -0 -0 -42 -3 -0 -8 -6 -0 -0 -2 -0 -23 -59 -71 -26 -8 -28 -27 -0 -30 -41 -3 -0 -31 -14 -9 -21 -5 -22 -37 -47
-0 -0 -0 -0 -0 -0 -29 -2 -1 -0 -3 -0 -0 -4 -21 -39 -15 -2 -3 -33 -0 -47 -21 -6 -8 -6 -7 -11 -8 -6 -17 -35
-0 -0 -0 -0 -0 -0 -0 -0 -3 -39 -0 -0 -4 -0 -0 -6 -22 -24 -3 -40 -18 -3 -38 -23 -16 -6 -11 -7 -10 -9 -12 -12
-0 -0 -0 -0 -0 -0 -0 -0 -0 -0 -0 -13 -0 -0 -0 -0 -4 -15 -34 -1 -4 -6 -52 -41 -30 -12 -25 -8 -16 -13 -7 -6
-0 -0 -0 -0 -0 -0 -0 -0 -0 -0 -0 -0 -3 -5 -0 -0 -0 -0 -15 -34 -20 -19 -39 -28 -13 -0 -5 -6 -3 -61 -21 -8
-0 -0 -0 -0 -0 -0 -0 -0 -0 -0 -0 -0 -0 -0 -0 -0 -13 -0 -0 -1 -30 -19 -22 -34 -19 -17 -15 -9 -8 -7 -18 -12
-0 -0 -0 -0 -0 -0 -0 -0 -0 -0 -0 -0 -0 -0 -0 -0 -0 -0 -21 -19 -4 -16 -90 -69 -25 -17 -38 -41 -6 -8 -9 -10
-0 -0 -0 -0 -0 -0 -0 -0 -0 -0 -0 -0 -0 -0 -0 -0 -0 -0 -0 -101 -54 -48 -134 -95 -109 -10 -22 -57 -72 -81 -10 -10
-0 -0 -0 -0 -0 -0 -0 -0 -0 -0 -0 -0 -0 -0 -0 -0 -0 -0 -0 -0 -19 -2 -40 -12 -81 -25 -27 -15 -25 -78 -76 -24
-0 -0 -0 -0 -0 -0 -0 -0 -0 -0 -0 -0 -0 -0 -0 -0 -0 -0 -0 -0 -0 -10 -1 -3 -13 -32 -10 -34 -30 -30 -47 -46
-0 -0 -0 -0 -0 -0 -0 -0 -0 -0 -0 -0 -0 -0 -0 -0 -0 -0 -0 -0 -0 -0 -0 -0 -0 -6 -24 -2 -57 -24 -37 -46
-0 -0 -0 -0 -0 -0 -0 -0 -0 -0 -0 -0 -0 -0 -0 -0 -0 -0 -0 -0 -0 -0 -0 -0 -4 -0 -1 -5 -15 -85 -45 -39
-0 -0 -0 -0 -0 -0 -0 -0 -0 -0 -0 -0 -0 -0 -0 -0 -0 -0 -0 -0 -4 -0 -0 -0 -0 -5 -0 -0 -7 -10 -22 -3
-0 -0 -0 -0 -0 -0 -0 -0 -0 -0 -0 -0 -0 -0 -0 -0 -0 -0 -0 -0 -12 -0 -0 -0 -0 -4 -0 -0 -0 -0 -0 -0
Wind_Speed
8 7 7 10 11 9 9 11 13 15 16 13 10 10 12 12 13 12 11 11 9 8 nan nan nan nan nan 4 4 3 nan nan
13 11 10 9 9 10 7 5 9 13 15 18 14 11 11 13 nan 14 12 12 10 8 nan nan nan nan nan nan nan nan nan nan
19 19 17 12 11 10 9 6 4 5 10 13 15 11 9 12 nan nan 15 14 12 9 nan nan nan nan nan nan nan nan nan nan
21 20 20 18 16 12 11 9 10 nan nan nan 10 11 11 9 nan nan 17 17 15 nan nan nan nan nan nan nan nan nan nan nan
26 23 21 18 20 20 18 16 16 13 12 nan nan nan 12 15 15 nan nan 18 nan nan nan nan nan nan nan nan nan nan nan nan
26 26 25 23 22 23 23 25 25 24 21 15 nan nan nan nan 19 nan nan nan nan nan nan 17 nan nan 9 6 nan nan nan nan
nan nan nan 25 27 26 25 26 30 32 34 32 28 24 21 21 20 nan nan nan nan nan nan nan 19 16 15 10 10 11 nan nan
nan nan nan nan nan nan nan 32 35 36 36 35 34 32 32 29 26 25 25 nan nan nan nan 24 23 22 19 15 13 16 16 nan
nan nan nan nan nan nan nan nan nan 38 39 38 36 35 34 35 33 35 32 nan nan nan 29 29 28 25 20 22 19 18 21 18
nan nan nan nan nan nan nan nan nan nan nan 38 38 40 41 36 36 35 40 39 36 33 nan 32 32 30 28 26 24 23 18 20
nan nan nan nan nan nan nan nan nan nan nan nan nan 41 42 41 43 38 38 43 46 46 nan nan 35 34 32 30 27 25 23 21
nan nan nan nan nan nan nan nan nan nan nan nan nan nan nan nan nan 45 41 37 nan nan 50 44 39 35 32 34 31 28 27 23
nan nan nan nan nan nan nan nan nan nan nan nan nan nan nan nan nan nan nan nan 44 nan nan nan nan 44 41 32 33 32 29 28
nan nan nan nan nan nan nan nan nan nan nan nan nan nan nan nan nan nan nan nan nan nan nan nan nan nan nan 42 34 nan nan 30
nan nan nan nan nan nan nan nan nan nan nan nan nan nan nan nan nan nan nan nan nan nan nan nan nan 49 nan nan nan nan 41 38
nan nan nan nan nan nan nan nan nan nan nan nan nan nan nan nan nan nan nan nan nan nan nan nan nan nan nan nan nan nan 44 nan
nan nan nan nan nan nan nan nan nan nan nan nan nan nan nan nan nan nan nan nan nan nan nan nan nan nan nan nan nan nan nan nan
nan nan nan nan nan nan nan nan nan nan nan nan nan nan nan nan nan nan nan nan nan nan nan nan nan 65 nan nan nan nan nan nan
nan nan nan nan nan nan nan nan nan nan nan nan nan nan nan nan nan nan nan nan nan nan nan nan nan nan 68 64 nan nan nan nan
nan nan nan nan nan nan nan nan nan nan nan nan nan nan nan nan nan nan nan nan nan nan nan nan nan nan 72 nan 66 nan nan nan
Wind_Direction
262 270 277 286 304 312 326 338 345 346 338 310 301 267 243 234 235 240 240 231 218 196 nan nan nan nan nan 182 171 154 nan nan
250 263 278 277 276 282 300 319 331 336 340 343 312 301 269 254 nan 242 252 253 246 224 nan nan nan nan nan nan nan nan nan nan
242 243 254 271 293 287 281 281 281 317 333 341 337 305 284 263 nan nan 265 259 250 244 nan nan nan nan nan nan nan nan nan nan
250 254 249 253 259 259 270 290 300 nan nan nan 324 324 299 274 nan nan 270 274 271 nan nan nan nan nan nan nan nan nan nan nan
241 247 252 250 259 266 276 277 272 276 283 nan nan nan 303 289 263 nan nan 266 nan nan nan nan nan nan nan nan nan nan nan nan
251 247 245 244 248 255 261 271 270 272 264 258 nan nan nan nan 290 nan nan nan nan nan nan 257 nan nan 242 221 nan nan nan nan
nan nan nan 253 252 254 251 247 260 263 264 258 254 262 269 274 280 nan nan nan nan nan nan nan 260 258 256 249 238 269 nan nan
nan nan nan nan nan nan nan 253 252 254 256 258 260 258 257 258 266 270 275 nan nan nan nan 259 257 259 261 265 267 270 274 nan
nan nan nan nan nan nan nan nan nan 256 257 254 254 258 257 251 260 254 258 nan nan nan 263 261 258 255 256 263 258 265 271 273
nan nan nan nan nan nan nan nan nan nan nan 260 253 253 254 255 257 258 248 253 261 264 nan 266 263 259 255 253 255 263 259 268
nan nan nan nan nan nan nan nan nan nan nan nan nan 256 253 256 259 258 257 255 250 252 nan nan 260 263 260 253 251 253 261 259
nan nan nan nan nan nan nan nan nan nan nan nan nan nan nan nan nan 258 261 267 nan nan 249 241 254 255 256 266 258 248 251 250
nan nan nan nan nan nan nan nan nan nan nan nan nan nan nan nan nan nan nan nan 266 nan nan nan nan 250 250 249 262 263 257 257
nan nan nan nan nan nan nan nan nan nan nan nan nan nan nan nan nan nan nan nan nan nan nan nan nan nan nan 257 245 nan nan 254
nan nan nan nan nan nan nan nan nan nan nan nan nan nan nan nan nan nan nan nan nan nan nan nan nan 268 nan nan nan nan 246 252
nan nan nan nan nan nan nan nan nan nan nan nan nan nan nan nan nan nan nan nan nan nan nan nan nan nan nan nan nan nan 250 nan
nan nan nan nan nan nan nan nan nan nan nan nan nan nan nan nan nan nan nan nan nan nan nan nan nan nan nan nan nan nan nan nan
nan nan nan nan nan nan nan nan nan nan nan nan nan nan nan nan nan nan nan nan nan nan nan nan nan 249 nan nan nan nan nan nan
nan nan nan nan nan nan nan nan nan nan nan nan nan nan nan nan nan nan nan nan nan nan nan nan nan nan 245 244 nan nan nan nan
nan nan nan nan nan nan nan nan nan nan nan nan nan nan nan nan nan nan nan nan nan nan nan nan nan nan 246 nan 243 nan nan nan